Wheaton NDB, MN

6:42 AM CDT on May 29, 2017 (GMT -0500)
Wheaton Municipal

Weather History for KETH - October, 2013

Change the Weather History Date:

Friday, October 4, 2013

  Actual Average Record
Temperature  
Mean Temperature 54 °F -  
Max Temperature 57 °F 67 °F 86 °F (1975)
Min Temperature 51 °F 39 °F 25 °F (1988)
Degree Days  
Heating Degree Days 11    
Growing Degree Days 4 (Base 50)    
Moisture  
Dew Point 52 °F    
Average Humidity 92    
Maximum Humidity 100    
Minimum Humidity 82    
Precipitation  
Precipitation 1.02 in - - ()
Sea Level Pressure  
Sea Level Pressure 29.98 in    
Wind  
Wind Speed 9 mph (NNE)    
Max Wind Speed 17 mph    
Max Gust Speed 28 mph    
Visibility 9 miles    
Events Rain , Thunderstorm    
Averages and records for this station are not official NWS values.
T = Trace of Precipitation, MM = Missing Value Source: NWS Daily Summary

Daily Weather History Graph

Daily Weather History Graph

Search for Another Location

Airport or City:

Trip Planner

Search our weather history database for the weather conditions in past years. The results will help you decide how hot, cold, wet, or windy it might be!

Date:

Astronomy

Oct. 04, 2013 Rise Set
Actual Time 7:28 AM CDT 7:00 PM CDT
Civil Twilight 6:58 AM CDT 7:29 PM CDT
Nautical Twilight 6:24 AM CDT 8:04 PM CDT
Astronomical Twilight 5:49 AM CDT 8:38 PM CDT
Moon 7:06 AM CDT (10/4) 6:41 PM CDT (10/4)
Length of Visible Light 12h 30m
Length of Day
11h 31m
Waning Crescent, 0% of the Moon is Illuminated
Oct 4
Waning Crescent
Oct 4
New
Oct 11
First Quarter
Oct 18
Full
Oct 26
Last Quarter

Hourly Weather History & Observations

Time (CDT) Temp. Dew Point Humidity Pressure Visibility Wind Dir Wind Speed Gust Speed Precip Events Conditions
12:14 AM 53.6 °F 51.8 °F 94% 30.04 in 10.0 mi North 6.9 mph - N/A   Overcast
12:34 AM 53.6 °F 51.8 °F 94% 30.04 in 10.0 mi North 6.9 mph - N/A   Overcast
12:54 AM 53.6 °F 51.8 °F 94% 30.03 in 10.0 mi North 9.2 mph - N/A   Overcast
1:15 AM 53.6 °F 51.8 °F 94% 30.02 in 10.0 mi North 10.4 mph - N/A   Overcast
1:35 AM 53.6 °F 51.8 °F 94% 30.03 in 10.0 mi North 10.4 mph - N/A   Overcast
1:55 AM 53.6 °F 51.8 °F 94% 30.03 in 10.0 mi North 8.1 mph - N/A   Overcast
2:14 AM 53.6 °F 51.8 °F 94% 30.03 in 10.0 mi North 6.9 mph - N/A   Overcast
2:34 AM 53.6 °F 51.8 °F 94% 30.03 in 10.0 mi North 8.1 mph - N/A   Overcast
2:54 AM 53.6 °F 51.8 °F 94% 30.03 in 10.0 mi North 6.9 mph - N/A   Overcast
3:15 AM 53.6 °F 51.8 °F 94% 30.03 in 10.0 mi North 5.8 mph - N/A   Overcast
3:35 AM 53.6 °F 51.8 °F 94% 30.03 in 10.0 mi North 6.9 mph - N/A   Overcast
3:55 AM 53.6 °F 51.8 °F 94% 30.02 in 10.0 mi North 9.2 mph - N/A   Overcast
4:15 AM 53.6 °F 51.8 °F 94% 30.03 in 10.0 mi North 8.1 mph - N/A   Overcast
4:34 AM 53.6 °F 51.8 °F 94% 30.02 in 10.0 mi North 9.2 mph - N/A   Overcast
4:54 AM 53.6 °F 51.8 °F 94% 30.00 in 10.0 mi North 13.8 mph 19.6 mph N/A   Overcast
5:15 AM 53.6 °F 51.8 °F 94% 30.00 in 10.0 mi NNE 8.1 mph 17.3 mph N/A   Mostly Cloudy
5:34 AM 53.6 °F 51.8 °F 94% 30.01 in 10.0 mi North 4.6 mph - N/A   Overcast
5:54 AM 53.6 °F 51.8 °F 94% 30.03 in 10.0 mi North 6.9 mph - N/A   Overcast
6:14 AM 53.6 °F 51.8 °F 94% 30.03 in 10.0 mi North 5.8 mph - N/A   Overcast
6:34 AM 53.6 °F 51.8 °F 94% 30.04 in 10.0 mi North 5.8 mph - N/A   Overcast
6:55 AM 53.6 °F 51.8 °F 94% 30.04 in 10.0 mi North 6.9 mph - N/A   Overcast
7:14 AM 53.6 °F 51.8 °F 94% 30.05 in 10.0 mi North 6.9 mph - N/A   Overcast
7:35 AM 51.8 °F 51.8 °F 100% 30.06 in 10.0 mi North 8.1 mph - N/A   Overcast
7:54 AM 51.8 °F 51.8 °F 100% 30.06 in 10.0 mi North 8.1 mph - N/A   Overcast
8:14 AM 51.8 °F 51.8 °F 100% 30.05 in 10.0 mi North 8.1 mph - N/A   Overcast
8:34 AM 51.8 °F 51.8 °F 100% 30.05 in 4.0 mi North 10.4 mph - N/A Rain Light Rain
8:54 AM 53.6 °F 51.8 °F 94% 30.06 in 2.5 mi North 9.2 mph - N/A   Light Drizzle
9:14 AM 53.6 °F 51.8 °F 94% 30.06 in 2.5 mi North 8.1 mph - 0.01 in   Heavy Drizzle
9:34 AM 53.6 °F 51.8 °F 94% 30.05 in 3.0 mi North 8.1 mph - 0.02 in   Heavy Drizzle
9:54 AM 53.6 °F 51.8 °F 94% 30.04 in 3.0 mi NNE 11.5 mph 17.3 mph 0.03 in Rain Rain
10:14 AM 53.6 °F 51.8 °F 94% 30.04 in 4.0 mi NNE 11.5 mph 19.6 mph N/A Rain Light Rain
10:34 AM 53.6 °F 51.8 °F 94% 30.03 in 7.0 mi NNE 12.7 mph 17.3 mph N/A   Overcast
10:54 AM 53.6 °F 51.8 °F 94% 30.04 in 3.0 mi NNE 10.4 mph - N/A   Overcast
11:15 AM 53.6 °F 51.8 °F 94% 30.05 in 5.0 mi NNE 8.1 mph - N/A   Light Drizzle
11:34 AM 53.6 °F 51.8 °F 94% 30.05 in 10.0 mi NNE 9.2 mph - N/A   Overcast
11:54 AM 53.6 °F 51.8 °F 94% 30.04 in 10.0 mi NNE 11.5 mph - N/A   Overcast
12:14 PM 53.6 °F 51.8 °F 94% 30.03 in 10.0 mi NE 12.7 mph 19.6 mph N/A   Overcast
12:34 PM 55.4 °F 51.8 °F 88% 30.02 in 10.0 mi NE 12.7 mph - N/A   Overcast
12:54 PM 55.4 °F 51.8 °F 88% 30.02 in 10.0 mi NE 11.5 mph 19.6 mph N/A   Overcast
1:14 PM 55.4 °F 51.8 °F 88% 30.02 in 10.0 mi ENE 9.2 mph 16.1 mph N/A   Overcast
1:34 PM 55.4 °F 51.8 °F 88% 30.01 in 10.0 mi NE 10.4 mph 18.4 mph N/A   Overcast
1:55 PM 55.4 °F 51.8 °F 88% 30.00 in 10.0 mi NE 9.2 mph 17.3 mph N/A   Overcast
2:15 PM 55.4 °F 51.8 °F 88% 29.99 in 10.0 mi NE 9.2 mph 18.4 mph N/A   Overcast
2:34 PM 57.2 °F 51.8 °F 82% 29.96 in 10.0 mi NE 12.7 mph 19.6 mph N/A   Overcast
2:55 PM 57.2 °F 51.8 °F 82% 29.96 in 10.0 mi NE 10.4 mph - N/A   Overcast
3:15 PM 57.2 °F 51.8 °F 82% 29.96 in 10.0 mi NE 15.0 mph 21.9 mph N/A   Overcast
3:34 PM 57.2 °F 51.8 °F 82% 29.96 in 10.0 mi ENE 12.7 mph 24.2 mph N/A   Overcast
3:55 PM 57.2 °F 51.8 °F 82% 29.96 in 10.0 mi NE 12.7 mph 18.4 mph N/A   Overcast
4:15 PM 57.2 °F 51.8 °F 82% 29.94 in 10.0 mi NE 13.8 mph 24.2 mph N/A   Overcast
4:35 PM 57.2 °F 51.8 °F 82% 29.95 in 10.0 mi NE 9.2 mph 21.9 mph N/A   Overcast
4:55 PM 57.2 °F 51.8 °F 82% 29.94 in 10.0 mi NE 11.5 mph 19.6 mph N/A   Overcast
5:14 PM 57.2 °F 51.8 °F 82% 29.95 in 10.0 mi NE 9.2 mph - N/A   Overcast
5:34 PM 57.2 °F 51.8 °F 82% 29.96 in 7.0 mi ENE 12.7 mph 17.3 mph N/A   Overcast
5:54 PM 55.4 °F 53.6 °F 94% 29.96 in 4.0 mi NE 9.2 mph - N/A Rain Rain
6:14 PM 55.4 °F 53.6 °F 94% 29.94 in 7.0 mi NE 8.1 mph - N/A Rain , Thunderstorm Light Thunderstorms and Rain
6:34 PM 55.4 °F 53.6 °F 94% 29.93 in 10.0 mi NE 12.7 mph 18.4 mph 0.01 in Rain Light Rain
6:54 PM 55.4 °F 53.6 °F 94% 29.94 in 10.0 mi NE 13.8 mph 18.4 mph 0.01 in Rain Light Rain
7:14 PM 55.4 °F 53.6 °F 94% 29.93 in 7.0 mi NE 10.4 mph 17.3 mph 0.02 in Rain Light Rain
7:34 PM 55.4 °F 53.6 °F 94% 29.92 in 10.0 mi NNE 9.2 mph 17.3 mph 0.02 in   Overcast
7:54 PM 55.4 °F 53.6 °F 94% 29.91 in 10.0 mi NNE 10.4 mph 18.4 mph 0.04 in Rain Light Rain
8:15 PM 55.4 °F 53.6 °F 94% 29.90 in 10.0 mi NE 17.3 mph - 0.02 in Rain Light Rain
8:34 PM 55.4 °F 53.6 °F 94% 29.90 in 10.0 mi NE 13.8 mph 23.0 mph 0.06 in Rain Light Rain
8:55 PM 55.4 °F 53.6 °F 94% 29.88 in 10.0 mi NE 12.7 mph 19.6 mph 0.08 in Rain Light Rain
9:14 PM 55.4 °F 53.6 °F 94% 29.86 in 10.0 mi NE 15.0 mph 21.9 mph N/A   Overcast
9:34 PM 55.4 °F 53.6 °F 94% 29.85 in 10.0 mi NE 15.0 mph 27.6 mph N/A Rain Light Rain
9:54 PM 55.4 °F 51.8 °F 88% 29.85 in 10.0 mi NE 15.0 mph 21.9 mph N/A Rain Light Rain
10:14 PM 53.6 °F 51.8 °F 94% 29.84 in 10.0 mi ENE 16.1 mph 21.9 mph N/A Rain Light Rain
10:34 PM 53.6 °F 51.8 °F 94% 29.85 in 3.0 mi NE 6.9 mph 21.9 mph 0.29 in Rain , Thunderstorm Heavy Thunderstorms and Rain
10:54 PM 53.6 °F 51.8 °F 94% 29.86 in 10.0 mi NE 8.1 mph - 0.49 in Rain , Thunderstorm Heavy Thunderstorms and Rain
11:15 PM 53.6 °F 51.8 °F 94% 29.86 in 10.0 mi ENE 10.4 mph 18.4 mph 0.16 in Rain , Thunderstorm Rain
11:34 PM 53.6 °F 51.8 °F 94% 29.87 in 7.0 mi NE 5.8 mph - 0.22 in Rain Rain
11:54 PM 53.6 °F 51.8 °F 94% 29.86 in 7.0 mi NE 9.2 mph - 0.37 in Rain Heavy Rain